This is the latest recevied weather packets stored in our database for station/object IN3XSV-15. If no packets are shown the sender has not sent any weather packets the latest 10 day(s).
| Time | Temp. | Humidity | Pressure | Rain* | Wind** | Luminosity | Snow |
|---|---|---|---|---|---|---|---|
| 1777629607 | 9.44° C | 51% | 864.5 hPa | 0 mm | - | - | - |
| 1777629307 | 10.56° C | 51% | 864.3 hPa | 0 mm | - | - | - |
| 1777629007 | 10.56° C | 51% | 864.3 hPa | 0 mm | - | - | - |
| 1777628707 | 11.11° C | 53% | 864.2 hPa | 0 mm | - | - | - |
| 1777628407 | 11.11° C | 53% | 864.2 hPa | 0 mm | - | - | - |
| 1777628107 | 11.11° C | 55% | 864.4 hPa | 0 mm | - | - | - |
| 1777627807 | 11.11° C | 56% | 864.2 hPa | 0 mm | - | - | - |
| 1777627507 | 11.11° C | 57% | 864.2 hPa | 0 mm | - | - | - |
| 1777627207 | 10.56° C | 58% | 864.2 hPa | 0 mm | - | - | - |
| 1777626907 | 10° C | 59% | 864.2 hPa | 0 mm | - | - | - |
| 1777626607 | 10° C | 60% | 864.1 hPa | 0 mm | - | - | - |
| 1777626307 | 9.44° C | 59% | 864.1 hPa | 0 mm | - | - | - |
| 1777626007 | 10° C | 58% | 864 hPa | 0 mm | - | - | - |
| 1777625707 | 10° C | 58% | 863.9 hPa | 0 mm | - | - | - |
| 1777625407 | 10.56° C | 60% | 864 hPa | 0 mm | - | - | - |
| 1777625107 | 10° C | 58% | 863.7 hPa | 0 mm | - | - | - |
| 1777624807 | 10.56° C | 59% | 863.7 hPa | 0 mm | - | - | - |
| 1777624507 | 11.67° C | 58% | 863.6 hPa | 0 mm | - | - | - |
| 1777624207 | 11.67° C | 61% | 863.6 hPa | 0 mm | - | - | - |
| 1777623907 | 11.11° C | 61% | 863.6 hPa | 0 mm | - | - | - |
| 1777623607 | 11.11° C | 62% | 863.5 hPa | 0 mm | - | - | - |
| 1777623307 | 10.56° C | 62% | 863.6 hPa | 0 mm | - | - | - |
| 1777623007 | 10° C | 63% | 863.6 hPa | 0 mm | - | - | - |
| 1777622708 | 10° C | 63% | 863.6 hPa | 0 mm | - | - | - |
| 1777622407 | 9.44° C | 63% | 863.5 hPa | 0 mm | - | - | - |
* Rain latest hour (hover to see other rain measurements)
** Current wind speed in m/s (hover to see current wind gust speed)